Meteo Giornale » Osservazioni meteo Gran Bretagna » Londra-Gatwick AP

ore: 17:20 - Osservazioni Meteo Londra-Gatwick AP
Lat. 51° 9' N Lon. 0° 11' W Alt. 62 metri s.l.m.

poco_nuvoloso Europe/London

21 °C

Poco Nuvoloso

Temp. 24 Ore

9 °C

21 °C

Sud-Est

13 Km/h

Dew point 14 °C

Umidità 64 %

Visibilità  10 Km

Il sole sorge alle ore 06:37

Il sole tramonta alle ore 19:12

Data e Ora Cielo e Fenomeni T °C DP °C Um. % Pres. hPa Vis. km Vento km/h
Oggi h: 17:20 poco_nuvoloso Poco Nuvoloso 21 14 64 1013 10 SE 13
Oggi h: 16:50 poco_nuvoloso Poco Nuvoloso 20 14 68 1013 10 S/SE 11.1
Oggi h: 16:20 nuvoloso Nuvoloso 20 14 68 1013 10 SE 13
Oggi h: 15:50 nuvoloso Nuvoloso 21 14 64 1013 10 SE 9.3
Oggi h: 15:20 nuvoloso Nuvoloso 20 14 68 1013 10 SE 11.1
Oggi h: 14:50 nuvoloso Nuvoloso 20 14 68 1014 10 S 9.3
Oggi h: 14:20 nuvoloso Nuvoloso 21 14 64 1014 10 SE 9.3
Oggi h: 13:50 nuvoloso Nuvoloso 20 14 68 1014 10 SE 11.1
Oggi h: 13:20 poco_nuvoloso Poco Nuvoloso 20 14 68 1014 10 S 9.3
Oggi h: 12:50 poco_nuvoloso Poco Nuvoloso 20 13 64 1014 10 S 11.1
Oggi h: 12:20 poco_nuvoloso Poco Nuvoloso 19 13 68 1015 10 S 9.3
Oggi h: 11:50 poco_nuvoloso Poco Nuvoloso 19 13 68 1015 10 S 9.3
Oggi h: 11:20 poco_nuvoloso Poco Nuvoloso 19 14 72 1015 10 S 9.3
Oggi h: 10:50 poco_nuvoloso Poco Nuvoloso 18 14 77 1015 10 SO 9.3
Oggi h: 10:20 poco_nuvoloso Poco Nuvoloso 17 13 77 1015 10 S 11.1
Oggi h: 09:50 poco_nuvoloso Poco Nuvoloso 17 14 82 1015 10 S/SO 9.3
Oggi h: 09:20 poco_nuvoloso Poco Nuvoloso 17 14 82 1015 10 N 5.5
Oggi h: 08:50 poco_nuvoloso Poco Nuvoloso 16 14 87 1015 10 S 7.4
Oggi h: 08:20 poco_nuvoloso Poco Nuvoloso 14 13 93 1015 10 N 5.5
Oggi h: 07:50 poco_nuvoloso Nebbia nelle Vicinanze 12 12 100 1015 8 N 3.7
Oggi h: 07:20 nebbia Banco di Nebbia 9 9 100 1015 2 N 5.5
Oggi h: 06:50 nebbia NebbiaParziale 10 10 100 1015 2 N 1.8
Oggi h: 06:20 foschia Foschia NebbiaParziale 11 11 100 1015 2 N 1.8
Oggi h: 05:50 foschia Foschia Banco di Nebbia 11 10 93 1015 2 N 0
Oggi h: 05:20 nebbia Banco di Nebbia 11 11 100 1015 3 N 0
Oggi h: 04:50 foschia Foschia Banco di Nebbia 11 11 100 1015 2 N 1.8
Oggi h: 04:20 foschia Foschia 11 11 100 1016 5 N 0
Oggi h: 03:50 foschia Foschia 12 11 93 1016 5 N 1.8
Oggi h: 03:20 sereno Sereno 13 12 93 1016 6 N 3.7
Oggi h: 02:50 foschia Foschia 13 12 93 1016 5 N 3.7
Oggi h: 02:20 foschia Foschia Banco di Nebbia 13 12 93 1016 2 N 5.5
Oggi h: 01:50 foschia Foschia Banco di Nebbia 13 13 100 1017 2 N 3.7
Oggi h: 01:20 foschia Foschia Banco di Nebbia 14 13 93 1017 1 N 5.5
Oggi h: 00:50 foschia Foschia Banco di Nebbia 14 13 93 1017 2 N 5.5
Oggi h: 00:20 foschia Foschia Banco di Nebbia 14 13 93 1017 2 N 5.5
Ieri h: 23:50 foschia Foschia Banco di Nebbia 14 13 93 1017 2 N 3.7
Ieri h: 23:20 sereno Sereno 15 14 93 1017 6 N 3.7
Ieri h: 22:50 sereno Sereno 15 14 93 1018 6 S/SO 7.4
Ieri h: 22:20 sereno Sereno 15 14 93 1018 7 SO 7.4
Ieri h: 21:50 poco_nuvoloso Poco Nuvoloso 16 14 87 1018 8 N 5.5
Ieri h: 21:20 poco_nuvoloso Poco Nuvoloso 16 14 87 1018 9 S/SO 7.4
Ieri h: 20:50 sereno Sereno 16 15 93 1017 10 S/SO 9.3
Ieri h: 20:20 sereno Sereno 17 15 88 1017 10 S/SO 7.4
Ieri h: 19:50 sereno Sereno 17 15 88 1017 9 S/SO 7.4
Ieri h: 19:20 poco_nuvoloso Poco Nuvoloso 18 15 82 1017 10 S/SO 9.3
Ieri h: 18:50 poco_nuvoloso Poco Nuvoloso 19 15 77 1017 10 SO 11.1
Ieri h: 18:20 sereno Sereno 20 15 72 1017 10 SO 11.1
Ieri h: 17:50 sereno Sereno 20 15 72 1017 10 S/SO 11.1